Location: Holcomb Observatory and Planetarium
(39.8415°N, 86.1714°W)
Time: 17:20:35
(UTC-04:00)

HST - Visible Passes

Search period start: 24 October 2014 00:00
Search period end: 02 November 2014 23:00
Orbit: 546 x 550 km, 28.5° (Epoch: 23 October)

Date Brightness Start Highest point End Pass type
(mag) Time Alt. Az. Time Alt. Az. Time Alt. Az.
25 Oct 3.3 20:49:55 10° SSW 20:50:43 12° S 20:50:43 12° S visible
26 Oct 3.1 20:42:05 10° SSW 20:43:54 14° S 20:43:54 14° S visible
27 Oct 2.9 20:34:25 10° SSW 20:36:58 16° S 20:37:03 16° S visible
28 Oct 2.8 20:26:51 10° SW 20:29:32 17° S 20:30:11 16° SSE visible
29 Oct 2.8 20:19:21 10° SW 20:22:07 17° S 20:23:18 15° SSE visible
30 Oct 2.9 20:11:55 10° SW 20:14:41 17° S 20:16:25 14° SSE visible
31 Oct 3.0 20:04:33 10° SW 20:07:14 17° S 20:09:34 11° SSE visible
01 Nov 3.2 19:57:14 10° SW 19:59:47 16° S 20:02:19 10° SSE visible
02 Nov 3.3 18:50:01 10° SW 18:52:19 14° S 18:54:36 10° SSE visible
